Regional Weather Roundup
Issued by NWS

Home | Current Version | Previous Version | Text Only | Print | Product List | Glossary Off
Versions: 1 2 3 4 5 6 7 8 9 10 11 12 13 14 15 16 17 18 19 20 21 22 23 24 25 26 27

000
ASUS45 KBOU 220907
RWRCO

WEATHER ROUNDUP FOR COLORADO
NATIONAL WEATHER SERVICE DENVER/BOULDER CO
300 AM MDT FRI SEP 22 2017

NOTE: "FAIR" INDICATES FEW OR NO CLOUDS BELOW 12000 FEET WITH NO
SIGNIFICANT WEATHER AND/OR OBSTRUCTIONS TO VISIBILITY.

COZ001>005-013-030-031-221000-
...NORTHWEST COLORADO...

CITY           SKY/WX    TMP DP  RH WIND       PRES   REMARKS
CRAIG          FAIR      57  19  22 S9        29.77S
HAYDEN         FAIR      57  22  25 S3        29.82F
MEEKER         FAIR      65  26  23 S18G29    29.79S
RABBIT EARS PA FAIR      45  19  36 SW8       30.05F
STEAMBOAT SPGS FAIR      46  29  52 CALM      29.83S
WALDEN         FAIR      41  23  48 SE8       29.92S
$$

COZ006>008-011-221000-
...WEST CENTRAL VALLEYS...

CITY           SKY/WX    TMP DP  RH WIND       PRES   REMARKS
GRAND JUNCTION FAIR      71  31  22 SE18      29.76R
MONTROSE       FAIR      65  29  25 SE9       29.87R
EAGLE          FAIR      46  25  43 E14       29.86S
RIFLE          FAIR      71  24  17 S16G29    29.79R
DELTA          FAIR      68  28  22 SW12G21   29.83R
NUCLA          FAIR      64  30  27 S24       29.88S
$$

COZ017>023-064>068-221000-
...SOUTHWEST COLORADO...

CITY           SKY/WX    TMP DP  RH WIND       PRES   REMARKS
DURANGO        MOCLDY    52  34  50 NE5       29.99S
CORTEZ         MOCLDY    62  36  37 SW8       29.90F
PAGOSA SPRINGS MOCLDY    52  31  43 CALM      30.05F
TELLURIDE      FAIR      55  30  38 S14G31    30.07S
WOLF CREEK PAS CLOUDY    37  30  75 S18G30    30.30S
$$

COZ009-010-012-014-032>034-037-058>063-221000-
...CENTRAL COLORADO...

CITY           SKY/WX    TMP DP  RH WIND       PRES   REMARKS
ASPEN          FAIR      47  26  44 S7        29.92S
BUENA VISTA    FAIR      60  24  24 S10G23    29.97R
COPPER MTN     FAIR      46  18  31 SW13G26   30.18S
BERTHOUD PASS  FAIR      37  30  75 SW12G25   30.19S
COTTONWOOD PAS FAIR      59  25  27 SW12      30.08S
GUNNISON       FAIR      42  26  53 NW7       29.99R
KREMMLING      FAIR      41  27  56 CALM      29.91S
LEADVILLE      FAIR      51  20  29 S14       30.06S
MONARCH PASS   FAIR      41  27  56 SW47G56   30.29F
SALIDA         FAIR      62  26  26 S7        30.04R
SUNLIGHT       FAIR      43  21  42 S17G36    30.08F
WILKERSON PASS FAIR      45  21  39 SW24G43   30.14F
$$

COZ069>075-221000-
...SAN LUIS VALLEY/SANGRE DE CRISTO MOUNTAINS...

CITY           SKY/WX    TMP DP  RH WIND       PRES   REMARKS
ALAMOSA        FAIR      56  32  40 SW18      30.00S
DEL NORTE      FAIR      55  32  41 SW9       30.03S
LA VETA PASS   FAIR      50  27  40 S36G51    30.20F
SAGUACHE       FAIR      41  28  60 NW7       30.03S
$$

COZ035-036-038>040-221000-
...NORTHERN COLORADO FRONT RANGE...

CITY           SKY/WX    TMP DP  RH WIND       PRES   REMARKS
DENVER INTL AP FAIR      65  22  19 S13       29.74S
DMNS CITY PARK   N/A     66  25  21 SE7       29.73S
AURORA         CLEAR     71  24  17 S13       29.75F
FRONT RANGE AP FAIR      59  25  27 S12       29.76S
ERIE MUNI ARPT FAIR      62  24  23 S6        29.76R
BOULDER MUN AP FAIR      64  23  20 SW7       29.71S
CENTENNIAL     FAIR      68  23  18 S14G33    29.76F
BROOMFIELD     FAIR      66  27  22 S7        29.75S
FORT COLLINS   FAIR      55  35  47 NE12      29.74R
LONGMONT       FAIR      53  35  49 CALM      29.73R
$$

COZ041-046-047-076>085-087-088-221000-
...PIKES PEAK/PALMER DIVIDE AND SOUTHERN FOOTHILLS...

CITY           SKY/WX    TMP DP  RH WIND       PRES   REMARKS
COLO. SPRINGS  FAIR      59  27  29 SE7       29.82F
A. F. ACADEMY  FAIR      60  22  23 NE10      29.82F
SCHRIEVER AFB  FAIR      58  26  29 SW9       29.84S
CHEYENNE MTN   FAIR      64  22  20 SE23G31   29.78F
ELLICOTT         N/A    N/A N/A N/A S12       29.82R
FALCON         FAIR      57  24  28 S6        29.88F
FORT CARSON    FAIR      64  25  23 S10       29.78F
LIMON          FAIR      55  26  32 SE9       29.78F
MONUMENT HILL  FAIR      54  25  32 SW12      29.88S
CANON CITY     CLEAR     63  28  27 S8        29.78F
WALSENBURG     NOT AVBL
TRINIDAD       FAIR      72  36  26 SW18G25   29.85F
$$

COZ042>045-048>051-090-091-221000-
...NORTHEAST COLORADO...

CITY           SKY/WX    TMP DP  RH WIND       PRES   REMARKS
GREELEY ARPT   FAIR      53  36  52 N6        29.72R
AKRON          FAIR      72  24  16 SW20G25   29.69S
BURLINGTON     FAIR      60  41  49 S14       29.74S
WRAY           FAIR      63  32  31 CALM      29.68S
YUMA           FAIR      57  32  38 SW8       29.68S
STERLING       FAIR      50  34  53 CALM      29.67R
HOLYOKE        FAIR      59  37  44 S7        29.68R
FORT MORGAN    FAIR      66  23  19 W14       29.71R
$$

COZ086-089-092>099-221000-
...SOUTHEAST COLORADO...

CITY           SKY/WX    TMP DP  RH WIND       PRES   REMARKS
PUEBLO         FAIR      65  29  25 SE5       29.74S
LA JUNTA       FAIR      78  39  24 S17G26    29.72F
LAMAR          FAIR      70  37  29 S15       29.72R
SPRINGFIELD      N/A     64  46  52 S18G25    29.82F
$$




USA.gov is the U.S. government's official web portal to all federal, state and local government web resources and services.